This is the latest recevied weather packets stored in our database for station/object KD4WXI. If no packets are shown the sender has not sent any weather packets the latest 10 day(s).
| Time | Temp. | Humidity | Pressure | Rain* | Wind** | Luminosity | Snow |
|---|---|---|---|---|---|---|---|
| 1777735560 | 12.78° C | 61% | 1015.3 hPa | 0 mm | - | 124 W/m² | - |
| 1777735257 | 12.22° C | 60% | 1015.6 hPa | 0 mm | - | 119 W/m² | - |
| 1777734954 | 12.22° C | 61% | 1015.4 hPa | 0 mm | - | 110 W/m² | - |
| 1777734652 | 12.22° C | 65% | 1015.4 hPa | 0 mm | - | 93 W/m² | - |
| 1777734349 | 12.22° C | 62% | 1015.3 hPa | 0 mm | - | 84 W/m² | - |
| 1777734045 | 12.22° C | 62% | 1015.3 hPa | 0 mm | - | 69 W/m² | - |
| 1777733741 | 12.22° C | 66% | 1015.2 hPa | 0 mm | - | 73 W/m² | - |
| 1777733438 | 12.22° C | 64% | 1015.2 hPa | 0 mm | - | 82 W/m² | - |
| 1777733135 | 12.22° C | 63% | 1015.1 hPa | 0 mm | - | 69 W/m² | - |
| 1777732831 | 12.22° C | 64% | 1014.8 hPa | 0 mm | - | 68 W/m² | - |
| 1777732528 | 12.22° C | 61% | 1014.7 hPa | 0 mm | - | 82 W/m² | - |
| 1777732226 | 12.22° C | 62% | 1014.8 hPa | 0 mm | - | 58 W/m² | - |
| 1777731923 | 12.22° C | 62% | 1014.7 hPa | 0 mm | - | 68 W/m² | - |
| 1777731619 | 12.22° C | 65% | 1014.6 hPa | 0 mm | - | 74 W/m² | - |
| 1777731317 | 12.22° C | 64% | 1014.8 hPa | 0 mm | - | 80 W/m² | - |
| 1777731015 | 12.22° C | 61% | 1015 hPa | 0 mm | - | 76 W/m² | - |
| 1777730713 | 12.22° C | 62% | 1014.8 hPa | 0 mm | - | 77 W/m² | - |
| 1777730409 | 12.22° C | 65% | 1014.9 hPa | 0 mm | - | 80 W/m² | - |
| 1777730104 | 12.22° C | 62% | 1015 hPa | 0 mm | - | 54 W/m² | - |
| 1777729801 | 12.22° C | 65% | 1014.6 hPa | 0 mm | - | 71 W/m² | - |
| 1777729498 | 12.22° C | 63% | 1014.7 hPa | 0 mm | - | 69 W/m² | - |
| 1777729195 | 12.22° C | 63% | 1014.8 hPa | 0 mm | - | 58 W/m² | - |
| 1777728891 | 12.22° C | 65% | 1014.5 hPa | 0 mm | - | 73 W/m² | - |
| 1777728588 | 12.22° C | 65% | 1014.8 hPa | 0 mm | - | 65 W/m² | - |
| 1777728286 | 12.22° C | 64% | 1014.7 hPa | 0 mm | - | 79 W/m² | - |
* Rain latest hour (hover to see other rain measurements)
** Current wind speed in m/s (hover to see current wind gust speed)